Weather in Batayevka

Russia / Astrakhan Oblast     48°08′27″N   46°17′23″E
temp.,
°C
wind,
m/s
gust,
m/s
humid.,
%
clouds,
%
prec.,
mm/h
press.,
hPa
HPBL,
m
1 august, sun
sun101:00+26sse22240 0.0 101011
04:00+25sse33250 0.0 101125
07:00+26ene11260 0.0 101230
10:00+33ese33180 0.0 1012738
13:00+36e33150 0.0 10113044
16:00+37e33161 0.0 10103505
19:00+36e43197 0.0 10093170
22:00+31sse33310 0.0 101032
2 august, mon
mon201:00+29sse34345 0.0 101037
04:00+29wsw2337100 0.0 101147
07:00+29s224110 0.0 101162
10:00+35s232915 0.0 10121394
13:00+38s56130 0.0 10113548
16:00+39ssw66120 0.0 10103922
19:00+37ssw46131 0.0 10103446
22:00+31se441944 0.0 101039
3 august, tue
tue301:00+29s33225 0.0 101031
04:00+28s332210 0.0 101025
07:00+29s352345 0.0 1011118
10:00+37s34145 0.0 1011980
13:00+40ssw66104 0.0 10103949
16:00+40sw66841 0.0 10094112
19:00+39ssw4692 0.0 10081123
22:00+31ssw23150 0.0 100911
4 august, wed
wed401:00+30s44160 0.0 100933
04:00+28ssw45195 0.0 100958
07:00+28s372230 0.0 1010169
10:00+35ssw2315100 0.0 1010625
13:00+37nnw3416100 0.0 10101715
16:00+37nw3319100 0.1 10101867
19:00+34nnw6727100 0.1 1010587
22:00+30nnw61135100 0.1 1012404
5 august, thu
thu501:00+27n6113679 0.0 1013376
04:00+26n5949100 0.0 1013303
07:00+25n5849100 0.0 1014314
10:00+27nne5644100 0.0 1015774
13:00+32n553079 0.0 10142595
16:00+33n55210 0.0 10142901
19:00+32n66205 0.0 10132757
22:00+26n41026100 0.0 1014198